RH
30 38 38 33 31 28 28 28 27 25 22 20 18 17 16 17 18 27 20 13 15 27 41 46 64 89 95 97 98 98 73 64 54 49 82 96 96 96
14 20 24 24 21 19 19 20 22 23 23 22 22 20 20 20 18 19 27 22 14 14 23 36 40 57 47 51 58 78 84 84 73 42 61 93 97 88
13 12 12 12 10 10 10 9 9 8 8 10 14 18 19 19 19 18 18 24 27 15 12 17 32 50 46 46 38 48 55 55 55 51 56 92 95 84
17 15 12 12 12 11 9 6 5 6 6 6 6 7 9 11 16 18 18 16 20 31 20 13 12 25 40 57 61 58 58 68 56 46 31 35 37 54
17 16 16 15 14 13 11 7 5 5 5 6 6 6 6 6 9 14 18 17 16 17 24 32 18 13 14 27 41 59 60 65 68 59 46 47 34 28
39 23 15 13 14 14 13 10 6 5 5 5 6 6 6 6 6 7 8 13 17 18 19 21 29 30 17 13 14 22 29 44 60 64 61 62 59 53
41 36 19 13 12 10 9 9 7 5 6 7 7 6 6 6 6 7 7 7 10 15 19 22 22 23 34 34 19 15 12 12 17 23 26 27 25 23
41 40 39 24 13 11 9 8 7 7 8 9 9 9 9 9 8 7 8 8 9 11 14 18 24 28 22 27 36 44 29 19 18 15 12 10 9 9
25 25 32 28 24 16 12 10 9 9 9 9 10 10 10 10 9 9 8 8 9 11 14 16 17 22 34 23 24 36 39 41 43 40 28 20 18 18
44 28 20 21 23 23 20 15 13 14 16 15 14 12 11 10 10 12 17 16 14 12 15 20 21 24 24 38 30 21 27 42 51 54 47 45 44 39
46 46 27 20 19 18 18 18 19 19 18 17 14 12 12 12 12 15 18 20 20 18 15 25 40 41 37 24 33 42 29 23 28 36 40 49 50 44
46 46 42 27 18 17 16 14 14 14 13 13 12 12 12 11 12 16 25 28 31 26 26 50 52 46 41 47 48 33 27 36 36 31 31 39 45 53
42 37 41 42 36 27 23 23 24 22 20 19 17 15 15 16 18 22 24 29 31 24 46 50 44 32 26 29 33 42 47 50 49 48 48 49 53 58
34 32 34 39 40 40 39 40 43 42 42 41 41 41 39 34 32 38 40 41 45 46 40 30 24 23 23 23 26 31 32 34 43 51 52 56 61 64
39 38 37 35 34 33 32 32 32 33 33 33 33 33 34 33 31 29 27 26 26 26 25 24 24 24 23 22 21 22 23 28 44 42 39 44 48 56
68 67 67 65 56 47 44 42 40 39 38 37 36 35 34 33 33 33 33 32 31 31 30 29 26 25 24 25 23 22 21 20 22 24 30 30 26 36
86 85 84 84 84 79 74 70 66 61 55 49 44 41 40 38 36 35 33 32 32 31 31 31 30 29 28 27 24 27 26 22 19 20 21 25 24 31
64 56 53 51 49 46 42 39 38 37 36 35 33 32 31 30 29 29 28 27 27 27 26 27 26 26 25 26 29 30 29 32 29 28 32 53 66 66
37 36 35 33 30 28 26 25 24 24 24 24 23 23 22 20 19 19 19 19 21 23 24 24 28 22 23 29 46 48 50 51 56 67 80 99 96 97
26 23 21 21 22 21 18 16 14 13 12 12 11 10 8 8 8 8 10 14 19 27 33 40 50 66 51 44 35 57 68 72 91 98 100 96 96 93
9 8 8 8 8 9 10 10 9 8 7 6 6 5 4 4 5 6 9 18 27 37 35 50 69 64 59 57 58 97 100 100 100 100 100 100 99 100
3 3 3 3 3 3 4 4 4 4 4 4 5 9 12 12 14 17 25 37 51 53 63 64 70 94 96 100 100 100 100 100 100 100 100 100 100 100
3 3 3 3 3 3 3 4 4 5 6 10 23 27 38 48 54 68 76 88 94 93 100 100 100 100 100 100 100 100 100 100 100 100 100 100 100 91
Wind_Speed
16 15 15 15 15 15 16 16 16 17 16 17 21 22 25 27 28 25 22 27 31 26 22 13 11 6 15 13 12 21 28 34 31 36 47 27 24 27
17 17 17 17 17 17 17 17 17 17 19 18 20 21 23 25 26 26 23 21 26 29 25 20 13 6 9 10 11 25 26 21 21 31 44 39 25 20
19 18 18 18 18 19 19 20 20 19 20 21 20 22 24 24 25 26 25 20 19 21 25 23 18 16 14 13 11 16 24 24 24 27 35 48 44 44
24 23 23 23 23 23 24 23 23 23 22 24 23 22 24 25 25 25 25 25 20 17 17 18 19 18 17 16 17 17 19 24 25 28 33 38 36 35
29 30 30 29 29 29 28 27 24 23 22 23 25 24 24 25 26 27 27 27 25 22 18 18 20 19 17 16 16 17 19 21 24 26 30 32 31 33
32 33 34 34 35 35 34 33 29 27 27 27 28 28 28 28 28 29 29 29 29 27 25 20 19 21 22 19 17 16 18 20 23 26 32 35 35 38
40 37 35 36 37 37 37 37 35 33 32 31 30 31 32 33 31 31 32 32 32 30 29 28 23 20 23 23 24 22 20 19 20 23 26 29 32 34
41 42 41 39 39 38 39 39 39 38 36 35 34 35 36 36 36 35 34 35 36 37 35 33 29 27 23 23 25 25 25 27 27 27 28 30 31 32
46 46 44 43 42 42 42 41 41 41 42 42 40 40 39 40 39 38 38 38 38 39 39 38 37 32 29 28 27 26 27 28 28 29 32 35 37 39
49 50 47 45 46 46 46 45 46 46 48 47 46 45 44 43 41 41 41 42 43 42 41 41 41 37 34 32 30 31 31 32 33 34 36 38 39 40
46 49 49 49 51 51 49 48 49 50 53 50 48 47 48 47 45 44 46 47 48 46 45 41 41 39 37 35 35 35 34 36 36 38 40 41 44 46
43 48 51 52 54 54 53 52 50 53 56 53 51 50 51 51 51 51 51 52 53 51 47 42 38 36 37 37 37 38 40 40 40 41 42 41 43 46
42 43 47 53 57 59 59 57 57 58 58 57 56 56 56 57 57 58 58 57 55 52 47 45 46 45 44 43 43 42 42 42 44 45 46 48 48 48
47 47 47 49 50 52 54 55 57 59 59 60 60 61 61 62 62 60 58 56 54 53 51 50 50 50 49 49 49 49 49 49 50 49 51 52 52 51
54 53 53 54 55 56 57 57 57 57 57 57 58 58 59 59 59 59 59 59 59 58 57 56 56 55 54 55 54 54 55 56 56 57 57 57 57 58
63 64 63 63 63 62 62 62 62 62 62 62 62 63 64 64 65 64 63 63 63 61 61 61 59 58 57 56 57 58 58 58 60 62 63 63 63 63
66 67 68 68 68 69 69 69 69 69 69 69 69 70 70 70 70 70 68 66 63 61 61 61 60 60 60 59 60 60 61 61 63 64 65 66 67 67
67 69 69 70 71 71 72 72 73 73 74 74 73 73 71 70 69 69 67 65 63 62 62 62 62 62 61 61 62 63 64 65 66 66 66 65 66 66
74 74 75 76 76 76 76 76 76 76 76 76 75 73 69 67 65 64 63 63 62 62 63 62 63 64 64 63 65 66 66 67 67 66 65 64 63 62
80 80 80 80 80 79 77 76 75 73 71 70 68 65 62 61 60 60 61 61 62 63 64 64 64 65 66 66 66 65 64 61 59 57 56 56 55 55
76 76 76 76 75 74 73 71 69 67 66 64 62 60 59 58 56 57 58 59 60 61 62 62 61 61 61 60 57 52 52 52 52 51 51 48 47 47
73 73 71 71 71 70 68 67 65 62 61 59 57 56 55 54 53 53 54 54 55 55 54 54 53 51 50 49 48 47 46 47 45 43 44 45 43 41
67 69 68 68 66 65 64 62 60 58 57 55 53 53 52 50 49 47 47 47 47 47 46 45 45 44 45 47 48 45 43 43 44 44 42 43 43 44
Wind_Direction
281 280 281 287 293 298 303 306 309 314 317 316 322 331 337 346 348 345 340 336 345 351 -0 352 4 351 279 274 215 230 244 247 259 247 251 238 211 225
284 282 281 285 290 295 301 305 308 314 316 321 323 328 333 342 346 349 346 335 334 342 349 349 334 262 261 281 277 254 252 251 257 244 251 249 219 239
283 283 283 284 289 294 299 303 307 312 317 320 325 328 330 336 341 343 351 344 330 323 333 339 333 323 290 265 259 260 249 253 251 246 245 247 254 264
278 281 283 285 288 292 296 301 304 306 310 314 320 324 327 331 335 337 342 347 343 323 306 309 319 314 301 290 271 255 253 240 237 234 248 255 260 269
276 277 279 282 286 290 293 295 299 302 309 315 318 320 321 325 330 333 336 337 340 341 323 300 289 294 298 286 272 265 261 253 239 231 231 235 240 243
277 279 277 278 281 285 288 291 292 295 299 305 307 313 318 321 324 326 329 331 332 334 332 324 303 286 278 280 278 269 256 252 253 249 244 242 241 242
272 277 279 278 279 281 282 285 288 290 294 298 302 306 309 313 317 321 323 324 323 326 327 327 320 306 292 282 271 268 266 260 253 250 248 246 246 247
268 272 276 278 278 278 280 282 284 287 288 291 295 297 301 305 308 311 314 318 320 317 320 320 320 314 304 291 283 279 268 261 259 257 251 249 249 248
268 269 269 272 274 275 277 279 282 284 286 288 290 292 295 298 301 304 307 310 313 313 314 314 314 311 306 300 290 283 282 277 272 267 264 261 258 255
265 264 266 269 271 272 274 276 279 282 283 285 288 290 291 293 294 296 301 304 307 309 308 308 306 305 301 298 293 288 285 285 285 282 276 273 271 270
264 263 266 268 270 271 272 273 276 279 280 282 283 285 287 288 288 291 296 299 301 303 302 303 299 299 297 293 290 289 286 281 281 283 285 283 279 276
273 268 266 267 269 272 274 275 276 277 278 281 283 284 285 285 286 287 291 295 294 296 297 294 291 292 295 293 290 286 285 285 284 282 281 281 281 278
277 275 273 270 270 272 273 274 276 276 278 281 282 282 283 283 284 286 290 291 291 292 291 288 289 289 289 288 287 286 283 282 281 280 279 280 279 277
274 274 274 274 274 274 275 276 276 277 278 279 280 281 281 281 283 285 287 287 287 287 286 285 285 285 286 286 284 282 282 281 280 280 280 281 281 280
274 274 274 274 274 274 274 274 275 276 277 279 280 280 280 281 282 282 283 284 285 285 285 284 283 283 283 283 282 280 280 279 279 280 279 279 279 280
274 275 275 275 274 274 275 275 276 276 277 278 278 279 280 280 281 281 282 282 283 283 283 282 281 280 280 279 278 278 278 277 277 278 278 278 277 277
272 273 273 273 273 273 273 274 274 274 275 275 275 276 277 278 279 280 280 281 281 279 278 279 278 278 277 276 275 275 274 274 272 272 273 274 275 275
274 273 273 273 273 273 273 273 273 274 274 275 275 276 277 277 278 279 280 278 277 276 275 275 276 275 274 273 272 271 271 271 271 271 272 272 274 274
274 274 274 274 275 275 274 274 274 275 275 275 276 277 277 277 277 276 275 274 272 272 272 271 271 271 270 269 269 270 269 269 271 273 274 276 277 277
278 277 276 276 276 276 276 276 276 277 276 276 276 276 275 274 273 273 271 270 270 269 269 270 271 272 271 270 270 271 274 276 275 275 276 278 277 278
277 276 275 274 273 273 273 274 274 274 275 275 274 274 273 271 270 269 269 269 269 270 270 271 272 272 273 274 274 273 272 273 273 274 276 275 274 274
276 275 273 272 272 272 272 272 272 272 272 272 271 271 270 270 269 269 269 269 270 271 272 272 272 272 271 270 269 269 269 270 271 270 269 270 272 271
275 274 273 272 272 271 271 270 271 271 271 270 270 270 270 270 270 270 269 270 270 270 270 269 270 270 269 267 266 264 262 261 262 267 270 271 272 275